User: anonymous   Login
Location: College Park
(38.9810°N, 76.9370°W)
Time: 16:21:37
(UTC-05:00)
Language:

N. Korean satellite - Orbit

View from above orbital plane
View from above orbital plane
View from above satellite
View from above satellite

Ground track
Ground track

The orbit data is extracted from the following two-line orbital elements,

1 39026U 12072A   17321.54401266  .00002696  00000-0  10509-3 0  9995
2 39026  97.2174 334.1475 0039842 356.5033   3.5922 15.26076851273374
Epoch (UTC): 17 November 2017 13:03:22
Eccentricity: 0.0039842
inclination: 97.2174°
perigee height: 460 km
apogee height: 515 km
right ascension of ascending node: 334.1475°
argument of perigee: 356.5033°
revolutions per day: 15.26076851
mean anomaly at epoch: 3.5922°
orbit number at epoch: 27337

The dashed part of the orbit path shows where the satellite is in the earth's shadow,  

DLR